[Iaude] MPEC E174: 2024 EV3 [a=1.53,e=0.29,i=4.5,H=24.5]
    mpec at cfa.harvard.edu 
    mpec at cfa.harvard.edu
       
    Wed Mar 13 17:04:37 EDT 2024
    
    
  
M.P.E.C. 2024-E174                               Issued 2024 March 13, 21:02 UT
     The Minor Planet Electronic Circulars contain information on unusual
         minor planets, routine data on comets and natural satellites,
         and occasional editorial announcements.  They are published
    on behalf of Division F of the International Astronomical Union by the
          Minor Planet Center, Smithsonian Astrophysical Observatory,
                          Cambridge, MA 02138, U.S.A.
			  
             Prepared using the Tamkin Foundation Computer Network
                              MPC at CFA.HARVARD.EDU
            URL https://www.minorplanetcenter.net/    ISSN 1523-6714
                                    2024 EV3                                    
Observations:
     K24E03V  C2024 02 10.54064510 31 41.283+11 28 50.76         22.25GVEE174F52
     K24E03V  C2024 02 10.56278610 31 41.764+11 29 14.45         22.95GVEE174F52
     K24E03V  C2024 02 10.57401010 31 41.993+11 29 26.40         22.09GVEE174F52
     K24E03V  C2024 02 18.39135410 36 02.250+14 17 12.44         21.07GVEE174F51
     K24E03V  C2024 02 18.42652610 36 02.855+14 18 05.39         22.71GVEE174F51
     K24E03V  C2024 03 02.34221610 44 10.211+20 40 09.76         21.60GVEE174F51
     K24E03V  C2024 03 02.35452310 44 10.561+20 40 35.40         21.63GVEE174F51
     K24E03V  C2024 03 03.55412610 45 03.751+21 21 30.50         21.65GVEE174F52
     K24E03V  C2024 03 06.31659410 47 33.382+22 58 15.99         21.72GVEE174F51
     K24E03V  C2024 03 06.32964410 47 33.871+22 58 44.64         21.36GVEE174F51
     K24E03V  C2024 03 06.34275410 47 34.361+22 59 13.69         21.37GVEE174F51
     K24E03V*1C2024 03 13.26076010 55 23.092+27 09 16.13         21.39GVEE174G96
     K24E03V 1C2024 03 13.26594510 55 23.408+27 09 27.86         21.48GVEE174G96
     K24E03V 1C2024 03 13.27111910 55 23.696+27 09 38.84         21.09GVEE174G96
     K24E03V 1C2024 03 13.27630810 55 24.006+27 09 50.22         21.10GVEE174G96
     K24E03V KC2024 03 13.40926510 55 32.030+27 14 32.80         21.48GVEE174I52
     K24E03V KC2024 03 13.41312510 55 32.340+27 14 41.40               VEE174I52
     K24E03V KC2024 03 13.42085410 55 32.750+27 14 57.60         21.44GVEE174I52
     K24E03V KC2024 03 13.82849510 56 11.57 +27 29 32.0          21.4 GVEE174L01
     K24E03V KC2024 03 13.83222510 56 11.86 +27 29 40.7          21.4 GVEE174L01
     K24E03V KC2024 03 13.83601510 56 12.14 +27 29 49.4          21.3 GVEE174L01
Observer details:
F51 Pan-STARRS 1, Haleakala.  Observers J. Herman, T. Lowe, P. Minguez, A.
    Schultz, I. Smith.  Measurers K. Chambers, T. de Boer, J. Fairlamb, H.
    Gao, M. Huber, C.-C. Lin, E. Magnier, Y. Ramanjooloo, R. Wainscoat, R.
    Weryk.  1.8-m Ritchey-Chretien + CCD.
F52 Pan-STARRS 2, Haleakala.  Observers J. Herman, T. Lowe, P. Minguez, A.
    Schultz, I. Smith.  Measurers K. Chambers, T. de Boer, J. Fairlamb, H.
    Gao, M. Huber, C.-C. Lin, E. Magnier, Y. Ramanjooloo, R. Wainscoat, R.
    Weryk.  1.8-m Ritchey-Chretien + CCD.
G96 Mt. Lemmon Survey.  Observer J. K. Hogan.  Measurers T. Beuden, V. F.
    Carvajal, D. Fay, J. B. Fazekas, D. C. Fuls, A. R. Gibbs, A. D. Grauer, H.
    Groeller, J. K. Hogan, R. A. Kowalski, S. M. Larson, G. J. Leonard, D.
    Rankin, R. L. Seaman, F. C. Shelly, K. W. Wierzchos.  1.5-m reflector +
    10K CCD.
I52 Steward Observatory, Mt. Lemmon Station.  Observer G. J. Leonard.
    Measurers T. Beuden, V. F. Carvajal, D. Fay, J. B. Fazekas, D. C. Fuls, A.
    R. Gibbs, A. D. Grauer, H. Groeller, J. K. Hogan, R. A. Kowalski, S. M.
    Larson, G. J. Leonard, D. Rankin, R. L. Seaman, F. C. Shelly, K. W.
    Wierzchos.  1.0-m prime focus + CCD.
L01 Visnjan Observatory, Tican.  Observers K. Korlevic, I. Lyon.  Measurer K.
    Korlevic.  1.0-m f/2.9 reflector + CCD.
Orbital elements:
2024 EV3                                                 Earth MOID = 0.1098 AU
Epoch 2024 Mar. 31.0 TT = JDT 2460400.5                 Veres                   
M 350.52839              (2000.0)            P               Q                  
n   0.51836645     Peri.   66.94898     -0.90080798     +0.43104845             
a   1.5347753      Node   138.53359     -0.42169815     -0.83969983             
e   0.2942212      Incl.    4.53577     -0.10351646     -0.33030507             
P   1.90           H   24.53          G   0.15           U   7                  
Residuals in seconds of arc
240210 F52  0.1-  0.1+    240303 F52  0.1+  0.0     240313 G96  0.1+  0.0
240210 F52  0.0   0.0     240306 F51  0.0   0.0     240313 I52  0.1-  0.2-
240210 F52  0.2-  0.1-    240306 F51  0.1-  0.2-    240313 I52  0.7+  0.4+
240218 F51  0.2+  0.1-    240306 F51  0.1+  0.0     240313 I52  0.7-  0.6+
240218 F51  0.2+  0.0     240313 G96  0.0   0.0     240313 L01  0.9-  0.5-
240302 F51  0.1+  0.0     240313 G96  0.1+  0.3+    240313 L01  0.5-  0.2-
240302 F51  0.1+  0.0     240313 G96  0.0   0.0     240313 L01  0.2-  0.0
Ephemeris:
2024 EV3                 a,e,i = 1.53, 0.29, 5                   q = 1.0832
Date    TT    R. A. (2000) Decl.     Delta      r    Elong.  Phase     V
2024 02 12    10 32 31.6 +11 56 22   0.2426  1.2245   166.8    10.6    22.6
...
2024 02 27    10 41 03.5 +18 18 44   0.1845  1.1724   170.4     8.1    21.8
...
2024 03 06    10 47 13.4 +22 47 03   0.1629  1.1483   162.3    15.3    21.7
...
2024 03 12    10 53 42.9 +26 23 33   0.1505  1.1323   155.4    21.4    21.7
2024 03 13    10 55 01.2 +26 59 53   0.1487  1.1298   154.3    22.4    21.7
2024 03 14    10 56 24.1 +27 36 06   0.1470  1.1274   153.2    23.4    21.7
...
2024 03 20    11 06 27.3 +31 07 25   0.1383  1.1140   146.7    29.4    21.8
...
2024 03 28    11 25 20.5 +35 15 42   0.1301  1.0997   139.1    36.5    21.8
...
2024 04 12    12 18 30.5 +39 35 37   0.1227  1.0847   129.5    45.5    21.9
M. P. C. Staff               (C) Copyright 2024 MPC           M.P.E.C. 2024-E174
    
    
More information about the Iaude
mailing list